Lexington Weather

Lexington, Massachusetts, USA

32°F
12/8/2019 4:48pm 
  • Lexington Conditions: Mostly cloudy
  • Temperature: 32.2°F / 0.1°CColder 0.7°F than last hour.
  • Dew Point: 19.4°FIncreased 2.7°Fsince last hour.
  • Relative Humidity: 59%Increased 8.0% since last hour.
  • Wind: Wind from SSW SSW 3 mph, 10-min avg: 2 mph, gust: 6 mph
  • Barometer: 30.40 in Steady
  • Visibility: 10 miles
  • Snow Today: 0.0 in
  •   

Regional Weather Roundup
for Boston / Norton, MA

        
000
ASUS41 KBOX 080501
RWRBOX

REGIONAL WEATHER ROUNDUP
NATIONAL WEATHER SERVICE BOSTON/NORTON MA
1200 AM EST SUN DEC 08 2019

NOTE:  "FAIR" INDICATES FEW OR NO CLOUDS BELOW 12,000 FEET WITH NO 
SIGNIFICANT WEATHER AND/OR OBSTRUCTIONS TO VISIBILITY.

MAZALL-080600-
EASTERN MASSACHUSETTS
  
CITY           SKY/WX    TMP DP  RH WIND       PRES   REMARKS
BOSTON         FAIR      27  12  53 W8        30.47S WCI  19          
BEVERLY        FAIR      16   9  74 W3        30.46R                  
LAWRENCE       FAIR      18  11  74 W3        30.48R                  
BEDFORD        FAIR       8   6  92 CALM      30.46S                  
BLUE HILL        N/A     19  14  81 NW10      30.41F WCI   7          
NORWOOD        FAIR      15   8  73 CALM      30.47S                  
MARSHFIELD     NOT AVBL                                               
PLYMOUTH       FAIR      21  13  71 NW5       30.46S WCI  15          
TAUNTON        FAIR      15  10  80 CALM      30.47S                  
NEW BEDFORD    FAIR      19  13  77 CALM      30.47R                  
$$

MAZALL-080600-
CAPE COD AND THE ISLANDS
  
CITY           SKY/WX    TMP DP  RH WIND       PRES   REMARKS
FALMOUTH       NOT AVBL                                               
HYANNIS        NOT AVBL                                               
CHATHAM        FAIR      30  12  47 VRB5      30.45R WCI  25          
PROVINCETOWN   FAIR      30  17  58 N15G22    30.45S WCI  19          
NANTUCKET      FAIR      30  15  53 NW13      30.45R WCI  20          
MARTHAS VNYRD  FAIR      26  13  57 N7        30.46S WCI  18          
$$
 
MAZALL-080600-
CENTRAL AND WESTERN MASSACHUSETTS
  
CITY           SKY/WX    TMP DP  RH WIND       PRES   REMARKS
WORCESTER      FAIR      15  10  80 W9        30.41R WCI   3          
FITCHBURG      FAIR       6   1  80 NW6       30.46S WCI  -4          
ORANGE         FAIR       5   0  79 CALM      30.46S                  
SPRINGFIELD    FAIR       5   1  83 CALM      30.47R                  
WESTFIELD      FAIR      11   7  84 CALM      30.48S                  
NORTH ADAMS    FAIR       5   1  83 CALM      30.47R                  
PITTSFIELD     FAIR      15   8  73 SW3       30.40S                  
$$
 
RIZALL-080600-
RHODE ISLAND
  
CITY           SKY/WX    TMP DP  RH WIND       PRES   REMARKS
PROVIDENCE     FAIR      24  12  60 W3        30.48S                  
NEWPORT        FAIR      26  15  63 NW5       30.47R WCI  20          
BLOCK ISLAND   FAIR      27  16  63 N9        30.48S WCI  18          
SMITHFIELD     FAIR      18  12  77 W3        30.45S                  
WESTERLY       FAIR      26  11  52 CALM      30.49S                  
$$
 
CTZALL-080600-
CONNECTICUT
  
CITY           SKY/WX    TMP DP  RH WIND       PRES   REMARKS
BRADLEY INTL   FAIR      17   8  67 CALM      30.48F                  
HARTFORD       FAIR      25  12  58 CALM      30.50F                  
BRIDGEPORT     FAIR      27  15  61 CALM      30.52R                  
DANBURY        FAIR      16  12  84 CALM      30.50R                  
GROTON         NOT AVBL                                               
NEW HAVEN      FAIR      25  13  60 CALM      30.51R                  
CHESTER        FAIR      21  12  68 CALM      30.48R                  
MERIDEN        FAIR      22  13  68 NW5       30.50S WCI  16          
WILLIMANTIC    FAIR      18  12  77 NE6       30.49S WCI  10          
OXFORD         FAIR      19  11  70 N6        30.47R WCI  11          
$$

MEZ002-015-021-024-NHZ003-005-008-011-012-014-VTZ005-008-080600-
NORTHERN NEW ENGLAND
  
CITY           SKY/WX    TMP DP  RH WIND       PRES   REMARKS
PORTLAND ME    FAIR      17   6  62 W6        30.44S WCI   9          
BANGOR ME      FAIR       7   4  87 CALM      30.39S                  
CONCORD NH     FAIR       6   2  83 CALM      30.45R                  
MANCHESTER NH  FAIR       9   5  84 CALM      30.43F                  
NASHUA NH      FAIR       5   3  91 NW5       30.46S WCI  -4          
PORTSMOUTH NH  CLEAR     17  11  76 W6        30.44R WCI   9          
JAFFREY NH     FAIR      -1  -6  79 CALM      30.40S                  
KEENE NH       FAIR       1  -2  87 CALM      30.47S                  
BURLINGTON VT  FAIR      10   6  84 SE3       30.44F                  
MT. WASHINGTON MOCLDY    -4  -8  84 NW49G56     N/A  WCI -37          
$$

NYZ052-076-080600-
EASTERN NEW YORK
  
CITY           SKY/WX    TMP DP  RH WIND       PRES   REMARKS
ALBANY         FAIR       9   4  80 CALM      30.50S                  
NEW YORK CITY  FAIR      32  15  49 N8        30.51S WCI  25          
$$
 
ANZALL-080600-
MARINE OBSERVATIONS
  
STATION/POSITION TIME  TEMP    WIND        PRES    VSBY  WAVE
                       AIR SEA DIR/SP/G                  HT/PER
                 (UTC) (F)     (DEG/KT/KT) (MB)    (MI)  (FT/S)
BOSTON BUOY      0350   30 47  320/ 17/ 23 1030.4          2/ 3
BUZZARDS BAY     0400   30     350/ 15/ 16 1032.2R
NANTUCKET SOUND  0400                      1031.4R
MASS BAY-STELLWA 0404   29 46  340/ 16/ 17 1029.5R  1 7/8  2/ 3
ISLE OF SHOALS   0400   26     300/ 18/ 22 1030.4R
S OF BLOCK IS    0430      52                N/A           3/ 4
$$

......................KEY.........................
  SKY/WX - SKY CONDITION/PRESENT WEATHER
  TMP    - TEMPERATURE IN FAHRENHEIT
  DWPT   - DEWPOINT IN FAHRENHEIT
  RH     - RELATIVE HUMIDITY IN PERCENT
  WIND   - DIRECTION AND SPEED IN MPH
  PRES   - MEAN SEA LEVEL PRESSURE IN INCHES OF HG
  WCI    - WIND CHILL INDEX
  VSB    - VISIBILITY IN MILES
  HX     - HEAT INDEX
  TC     - TEMPERATURE IN CELSIUS
  VRB    - VARIABLE WIND DIRECTION
  N/A    - NOT AVAILABLE
  
      

Other recent Regional Weather Roundups

Sun Dec 8, 4:10pm

Sun Dec 8, 4:01pm

Sun Dec 8, 3:10pm

Sun Dec 8, 3:01pm

Sun Dec 8, 2:10pm

Sun Dec 8, 2:01pm

Sun Dec 8, 1:10pm

Sun Dec 8, 1:00pm

Sun Dec 8, 12:10pm

Sun Dec 8, 12:01pm

Sun Dec 8, 11:10am

Sun Dec 8, 11:00am

Sun Dec 8, 10:10am

Sun Dec 8, 10:01am

Sun Dec 8, 9:10am

Sun Dec 8, 9:00am

Sun Dec 8, 8:10am

Sun Dec 8, 8:00am

Sun Dec 8, 7:10am

Sun Dec 8, 7:00am

Sun Dec 8, 6:10am

Sun Dec 8, 6:00am

Sun Dec 8, 5:10am

Sun Dec 8, 5:00am

Sun Dec 8, 4:10am

Sun Dec 8, 4:00am

Sun Dec 8, 3:10am

Sun Dec 8, 3:00am

Sun Dec 8, 2:10am

Sun Dec 8, 2:00am

Sun Dec 8, 1:10am

Sun Dec 8, 1:00am

Sun Dec 8, 12:10am

Sat Dec 7, 11:10pm

Sat Dec 7, 11:00pm

Sat Dec 7, 10:10pm

Sat Dec 7, 10:00pm

Sat Dec 7, 9:10pm

Sat Dec 7, 9:00pm

Sat Dec 7, 8:10pm

Sat Dec 7, 8:00pm

Sat Dec 7, 7:10pm

Sat Dec 7, 7:00pm

Sat Dec 7, 6:10pm

Sat Dec 7, 6:00pm

Sat Dec 7, 5:10pm

Sat Dec 7, 5:00pm

Sat Dec 7, 4:10pm

Sat Dec 7, 4:00pm

Sat Dec 7, 3:10pm

Sat Dec 7, 3:00pm

Sat Dec 7, 2:10pm

Sat Dec 7, 2:01pm

Sat Dec 7, 1:10pm

Sat Dec 7, 1:00pm

Sat Dec 7, 12:10pm

Sat Dec 7, 12:01pm

Sat Dec 7, 11:10am

Sat Dec 7, 11:00am

Sat Dec 7, 10:10am

Sat Dec 7, 10:01am

Sat Dec 7, 9:10am

Sat Dec 7, 9:00am

Sat Dec 7, 8:10am

Sat Dec 7, 8:00am

Sat Dec 7, 7:10am

Sat Dec 7, 7:00am

Sat Dec 7, 6:10am

Sat Dec 7, 6:00am

Sat Dec 7, 5:10am

Sat Dec 7, 5:00am

Sat Dec 7, 4:10am

Sat Dec 7, 4:00am

Sat Dec 7, 3:10am

Sat Dec 7, 3:00am

Sat Dec 7, 2:10am

Sat Dec 7, 2:01am

Sat Dec 7, 1:10am

Sat Dec 7, 1:00am

Sat Dec 7, 12:10am

Sat Dec 7, 12:01am

Fri Dec 6, 11:10pm

Fri Dec 6, 11:00pm

Fri Dec 6, 10:10pm

Fri Dec 6, 10:00pm

Fri Dec 6, 9:10pm

Fri Dec 6, 9:00pm

Fri Dec 6, 8:10pm

Fri Dec 6, 8:00pm

Fri Dec 6, 7:10pm

Fri Dec 6, 7:01pm

Fri Dec 6, 6:10pm

Fri Dec 6, 6:00pm

Fri Dec 6, 5:10pm

Fri Dec 6, 5:00pm

Fri Dec 6, 4:10pm

Fri Dec 6, 4:00pm

Fri Dec 6, 3:10pm

Fri Dec 6, 3:00pm

Fri Dec 6, 2:10pm

Fri Dec 6, 2:00pm

Fri Dec 6, 1:10pm

Fri Dec 6, 1:00pm

Fri Dec 6, 12:10pm

Fri Dec 6, 12:00pm

Fri Dec 6, 11:10am

Fri Dec 6, 11:00am

Fri Dec 6, 10:10am

Fri Dec 6, 10:00am

Fri Dec 6, 9:10am

Fri Dec 6, 9:00am

Fri Dec 6, 8:10am

Fri Dec 6, 8:00am

Fri Dec 6, 7:10am

Fri Dec 6, 7:00am

Fri Dec 6, 6:10am

Fri Dec 6, 6:01am

Fri Dec 6, 5:10am

Fri Dec 6, 5:00am

Fri Dec 6, 4:10am

Fri Dec 6, 4:00am

Fri Dec 6, 3:10am

Fri Dec 6, 3:00am

Fri Dec 6, 2:10am

Fri Dec 6, 2:00am

Fri Dec 6, 1:10am

Fri Dec 6, 1:00am

Fri Dec 6, 12:10am

Fri Dec 6, 12:00am

Thu Dec 5, 11:10pm

Thu Dec 5, 11:00pm

Thu Dec 5, 10:10pm

Thu Dec 5, 10:01pm

Thu Dec 5, 9:10pm

Thu Dec 5, 9:01pm

Thu Dec 5, 8:10pm

Thu Dec 5, 8:00pm

Thu Dec 5, 7:10pm

Thu Dec 5, 7:00pm

Thu Dec 5, 6:10pm

Thu Dec 5, 6:00pm

Thu Dec 5, 5:10pm

Thu Dec 5, 5:00pm

Meta data:

ID: 45a3467f-b40a-422b-b613-f5368b245dfc
Link: https://api.weather.gov/products/45a3467f-b40a-422b-b613-f5368b245dfc